BAW411 GCTS-EGLL

Flight info

Callsign BAW411
Flight time N/A
Altitude 32000
Route KONBA2M KONBA UN866 BEXAL DCT ORSOS DCT TERVA DCT ASMOV DCT AGADO DCT KORUL DCT FEJAC DCT JSY DCT REVTU UP87 ROXOG ROXOG1H
Aircraft A321/M-SDE3FGHIRWY/LB1

Departure

Time 2026-04-30 15:09
Airport Tenerife Sur Airport (GCTS)

Arrival

Time N/A
Airport London Heathrow Airport (EGLL)
Time Latitude Longitude Altitude Speed Heading
2026-04-30 14:41 28.04716 -16.57679 222 ft 0 kts 340°
2026-04-30 14:56 28.04696 -16.57670 224 ft 4 kts 336°
2026-04-30 14:57 28.04672 -16.57656 222 ft 4 kts 321°
2026-04-30 14:57 28.04657 -16.57626 223 ft 0 kts 248°
2026-04-30 15:01 28.04647 -16.57653 221 ft 5 kts 248°
2026-04-30 15:01 28.04638 -16.57679 219 ft 6 kts 248°
2026-04-30 15:01 28.04602 -16.57781 220 ft 8 kts 245°
2026-04-30 15:02 28.04578 -16.57845 216 ft 9 kts 248°
2026-04-30 15:02 28.04553 -16.57912 219 ft 9 kts 242°
2026-04-30 15:03 28.04382 -16.58002 210 ft 11 kts 248°
2026-04-30 15:03 28.04320 -16.58158 208 ft 11 kts 245°
2026-04-30 15:04 28.04257 -16.58330 205 ft 13 kts 248°
2026-04-30 15:04 28.04178 -16.58578 208 ft 10 kts 250°
2026-04-30 15:05 28.04075 -16.58787 205 ft 7 kts 187°
2026-04-30 15:06 28.04034 -16.58774 208 ft 0 kts 149°
2026-04-30 15:06 28.04032 -16.58772 209 ft 2 kts 149°
2026-04-30 15:07 28.04010 -16.58729 208 ft 6 kts 104°
2026-04-30 15:07 28.03993 -16.58602 203 ft 10 kts 95°
2026-04-30 15:08 28.04003 -16.58526 211 ft 3 kts 70°
2026-04-30 15:08 28.04774 -16.56335 246 ft 178 kts 68°
2026-04-30 15:09 28.05661 -16.53765 1602 ft 170 kts 70°
2026-04-30 15:09 28.06504 -16.51328 2607 ft 167 kts 69°
2026-04-30 15:10 28.07216 -16.49276 3314 ft 172 kts 68°
2026-04-30 15:11 28.09079 -16.43866 4828 ft 198 kts 69°
2026-04-30 15:11 28.10071 -16.40793 5488 ft 215 kts 70°
2026-04-30 15:12 28.11673 -16.35812 6623 ft 236 kts 70°
2026-04-30 15:13 28.12863 -16.32122 7262 ft 257 kts 70°
2026-04-30 15:14 28.15410 -16.24263 9249 ft 273 kts 70°
2026-04-30 15:14 28.17489 -16.17806 10116 ft 306 kts 70°
2026-04-30 15:16 28.21675 -16.06575 12601 ft 313 kts 47°
2026-04-30 15:17 28.30057 -16.03395 13141 ft 350 kts 349°
2026-04-30 15:18 28.42415 -16.05146 15184 ft 364 kts 349°
2026-04-30 15:19 28.50010 -16.06228 16445 ft 370 kts 348°